Location: Hylvaty SDH
(49.9612°N, 16.4057°E)
Time: 07:20:46
(UTC+02:00)

Transit 2A Rocket - Pass Details

Date: 16 July 2020
Orbit: 584 x 919 km, 66.7° (Epoch: 13 August)

Event Time Altitude Azimuth Distance (km) Brightness Sun altitude
Rises 22:24:47 0° 309° (NW) 3,564 10.2 -11.0°
Reaches altitude 10° 22:29:25 10° 278° (W) 2,588 8.4 -11.4°
Maximum altitude 22:31:08 11° 261° (W) 2,477 8.0 -11.6°
Drops below altitude 10° 22:32:50 10° 244° (WSW) 2,548 7.8 -11.7°
Sets 22:37:18 0° 212° (SSW) 3,412 8.1 -12.1°
